Simultaneous Nadir Overpasses (SNOs) Predictions

Prediction of SNOs between GOES-17 and TERRA Satellite Orbit:

Table of predicted SNOs for the next 14.0 days since TLE Epoch: 2/21/2025
Index Date Time (GOES-17) GOES-17 Lat,Lon TERRA Lat,Lon Distance(km) Time Diff (sec)
1 02/23/2025 16:11:03 0.00,-104.40 -0.78,-100.58 433.66 80
2 02/24/2025 04:30:46 -0.02,-104.38 -0.20,-105.38 112.85 80
3 02/26/2025 04:14:43 -0.01,-104.38 0.75,-100.87 399.16 80
4 02/26/2025 16:34:18 0.00,-104.40 0.26,-105.64 140.40 80
5 02/28/2025 16:12:54 0.01,-104.40 -0.67,-101.12 372.28 80
6 03/01/2025 04:32:36 -0.01,-104.38 -0.35,-105.91 174.67 80
7 03/03/2025 04:16:32 -0.01,-104.38 0.62,-101.40 338.50 80
8 03/03/2025 16:36:07 0.01,-104.40 0.38,-106.16 200.65 80
9 03/05/2025 16:14:42 0.01,-104.39 -0.56,-101.64 312.16 80
10 03/06/2025 04:34:23 -0.00,-104.37 -0.43,-106.44 235.08 80
